Theta_e
297 296 295 296 296 295 293 293 293 294 291 293 291 292 294 291 289 286 283 282 284 286 285 289 289 286 286 289 288 288 288 291 292 289 290 290 291 297 302 307 311 314 316 319 324 324 325 325 326 326 325 325 326 327 326 327 328 329 330 329 330 330 329 328 327 326 326 326 327 327 328 327 327 328
296 296 294 294 295 294 293 294 293 292 293 291 292 292 291 293 293 290 289 289 284 284 283 286 287 285 285 285 287 287 290 293 292 289 289 290 291 297 299 302 306 309 311 314 319 324 324 326 326 325 325 325 325 326 327 327 327 328 328 328 329 328 324 322 322 323 324 325 325 326 327 327 327 327
295 295 295 294 295 294 294 293 293 292 292 292 291 290 291 291 293 292 288 287 288 287 288 286 287 286 284 283 285 286 288 291 291 289 289 289 292 295 295 298 301 305 308 311 313 317 323 324 325 326 325 325 325 325 325 325 325 326 327 327 327 324 321 321 321 321 322 322 324 325 326 327 327 327
295 295 295 295 296 294 291 292 291 292 292 292 291 291 291 290 291 291 291 290 294 286 286 285 284 282 284 283 286 288 288 288 295 288 289 288 293 292 294 297 299 302 305 307 309 311 315 319 322 325 326 326 325 325 325 325 325 325 326 326 323 320 321 321 321 321 321 321 322 323 324 325 326 327
293 294 295 295 295 292 293 293 292 291 291 291 291 291 290 290 290 291 290 290 291 291 284 284 286 283 284 286 284 287 287 288 288 293 288 287 289 291 293 294 297 299 302 304 305 307 309 311 313 316 319 322 324 324 325 324 324 324 322 320 319 317 319 320 320 320 320 321 321 321 322 323 324 324
293 293 293 294 293 292 294 293 292 292 291 290 290 290 291 291 291 290 291 290 290 292 287 289 284 284 284 287 282 287 287 289 287 289 290 288 289 291 292 292 294 297 299 301 303 305 306 306 307 308 310 314 317 320 320 318 316 316 316 316 315 315 316 317 317 317 318 318 318 319 320 321 322 323
292 292 292 293 292 290 292 292 293 290 291 290 291 291 290 291 291 290 291 290 290 290 290 289 290 286 284 288 288 283 284 285 286 287 289 291 289 288 289 291 290 296 298 300 302 304 305 305 305 306 306 307 307 308 310 311 312 312 313 314 313 312 312 313 313 313 313 313 314 315 316 319 321 322
291 292 292 292 291 290 292 291 290 290 290 291 291 291 291 291 291 290 289 291 292 291 290 286 290 285 284 285 284 283 283 284 284 285 286 285 287 288 287 288 290 293 297 299 299 301 302 303 304 305 305 306 306 306 306 307 308 308 309 310 311 311 310 310 311 311 311 311 310 311 312 313 316 320
292 292 292 292 291 290 291 290 289 289 290 291 291 291 291 291 291 289 290 290 289 290 290 290 284 282 283 283 282 282 285 285 284 282 284 285 285 284 285 286 290 293 295 296 297 298 299 300 301 302 303 304 305 305 304 304 304 304 305 305 307 310 310 309 309 310 310 310 308 307 307 308 309 314
292 292 292 291 291 291 291 292 291 290 290 289 290 290 290 291 289 288 288 288 288 288 290 289 290 286 289 289 286 281 283 284 285 286 286 283 283 284 286 287 287 286 288 290 293 295 297 298 299 300 301 302 303 304 303 303 302 301 302 303 304 306 308 308 307 307 308 308 308 308 307 306 306 307
292 292 291 291 290 291 291 292 291 290 289 289 289 290 290 289 287 288 288 287 287 287 288 289 288 288 285 285 290 283 281 282 283 285 286 287 285 283 285 287 286 286 288 290 293 293 294 294 295 298 299 300 301 301 302 302 301 300 302 303 304 305 306 307 306 306 306 306 307 307 307 307 306 305
291 291 291 291 291 291 291 291 291 290 290 289 289 289 289 287 288 288 287 286 287 287 286 287 288 287 287 283 283 280 281 284 284 283 284 286 288 288 283 284 286 284 286 288 288 290 291 292 293 296 297 298 299 299 300 300 300 299 300 302 303 304 305 306 306 305 305 306 306 306 306 306 306 306
289 289 288 289 289 290 291 291 291 291 291 290 289 287 287 287 287 287 287 287 286 286 286 287 286 285 286 286 286 284 284 286 289 285 282 284 285 285 284 286 284 285 285 285 286 287 288 289 289 290 291 293 296 296 297 298 298 298 300 301 302 303 304 305 306 305 305 305 305 305 305 305 306 306
286 287 287 288 290 289 289 290 290 291 291 292 291 290 287 287 286 286 286 286 286 286 286 286 286 285 286 287 286 286 286 285 284 284 282 283 285 284 284 285 285 285 283 284 286 287 287 287 288 288 290 293 292 294 295 297 298 299 301 301 301 302 302 304 305 305 305 304 304 304 305 305 306 306
285 285 286 286 287 288 288 288 289 291 291 291 291 292 290 290 289 286 286 286 285 285 285 286 285 285 286 287 286 285 286 284 285 284 285 285 284 285 285 287 285 282 285 284 283 286 286 286 287 288 289 290 290 292 293 296 297 298 300 301 301 301 302 303 303 304 304 304 303 304 304 305 305 305
285 284 284 284 284 285 286 286 286 288 290 290 291 291 291 291 291 292 289 288 285 285 285 285 285 285 286 287 285 285 284 286 284 283 284 284 284 284 284 283 285 284 284 284 282 285 284 284 286 286 288 289 290 292 294 297 298 299 299 300 301 301 301 302 302 303 303 303 303 303 303 304 304 305
284 283 283 283 282 284 286 286 284 285 285 288 290 290 290 290 291 292 293 292 290 288 286 286 286 286 286 286 286 285 283 284 286 283 282 282 283 284 285 285 286 286 283 283 282 284 285 283 284 285 287 288 289 290 293 296 297 298 299 299 299 300 301 301 301 302 302 302 302 303 303 303 303 304
283 283 283 283 283 283 283 284 284 284 283 284 284 284 284 283 285 289 290 291 290 289 288 287 287 287 286 288 287 286 285 285 286 286 286 283 283 283 284 286 286 282 282 285 284 285 283 283 285 285 285 287 288 289 292 295 297 297 298 298 299 299 299 300 300 300 301 301 302 302 302 302 302 302
282 282 283 282 282 282 282 281 282 282 283 283 282 283 282 282 282 282 282 283 284 286 288 287 288 288 287 287 287 286 285 287 289 290 289 288 287 286 285 283 283 284 282 283 283 283 284 281 284 286 285 285 287 287 291 294 296 297 297 297 298 298 298 299 299 299 300 300 300 301 301 302 302 301
281 281 280 281 281 281 282 283 287 285 281 282 282 282 281 281 280 281 284 287 288 286 286 286 287 288 288 290 288 287 287 286 287 287 287 286 286 285 285 286 282 283 283 285 286 284 285 281 284 285 285 285 286 286 285 290 294 295 296 297 297 297 298 298 298 299 299 299 300 300 300 301 301 300
282 282 283 284 284 283 283 285 288 289 287 284 283 283 283 284 284 285 285 287 289 290 290 290 291 291 292 293 293 293 293 290 288 287 286 286 287 286 286 287 287 286 282 282 285 285 285 283 283 284 281 284 286 286 285 286 291 294 295 296 296 297 297 297 297 298 298 298 299 299 300 300 300 299
284 284 284 284 283 283 283 286 288 289 287 284 285 285 285 285 285 285 285 285 285 288 289 289 290 290 291 292 292 293 293 293 291 287 286 287 287 286 286 286 287 287 283 282 285 283 285 281 281 283 278 276 279 282 283 286 287 291 293 294 295 296 296 297 297 297 297 297 298 298 299 299 299 299
283 282 283 283 284 283 285 289 289 289 285 281 282 282 283 284 284 284 283 283 282 282 283 282 283 284 286 286 287 287 289 290 289 289 288 288 287 286 286 286 286 285 287 284 285 284 286 285 282 283 281 284 287 282 283 284 285 285 287 287 289 293 294 295 295 296 296 297 297 297 298 298 299 298
282 281 281 282 285 286 286 287 287 287 287 282 282 283 284 284 283 282 281 281 281 280 281 280 281 281 282 283 284 285 285 286 286 287 287 287 287 286 286 286 286 285 285 282 285 284 285 286 284 284 284 284 284 278 273 278 280 282 283 284 285 288 290 290 291 293 294 295 296 296 297 297 298 296
278 277 278 279 282 284 284 284 285 286 286 285 280 281 282 284 285 285 281 280 283 280 280 280 280 280 281 282 283 283 283 284 285 285 286 286 287 286 286 285 285 285 287 283 286 285 284 286 285 283 281 283 283 284 277 275 275 276 279 281 282 284 285 285 286 286 290 292 293 294 295 296 296 296
275 275 275 274 279 282 282 283 283 284 284 283 281 282 285 285 285 283 282 281 281 281 281 281 281 280 280 281 282 282 282 283 283 284 285 285 286 286 286 286 285 284 284 283 287 285 284 284 285 284 283 281 283 284 283 282 275 275 277 278 279 280 281 282 282 283 285 285 286 289 291 293 295 295
271 273 272 274 279 281 281 281 282 282 282 281 279 283 283 283 283 283 282 282 281 281 281 281 280 280 280 280 280 280 281 281 282 282 283 283 284 284 285 285 285 284 280 279 281 282 283 282 284 282 282 283 282 283 283 282 281 276 276 277 277 277 278 278 279 280 281 281 281 285 286 288 290 292
271 271 273 276 280 280 280 280 281 280 280 279 282 282 282 281 281 278 278 278 279 280 280 280 280 280 281 280 279 279 280 280 281 281 281 281 281 281 280 280 279 277 276 276 277 278 280 281 282 283 282 281 280 280 280 283 282 278 278 277 276 275 276 277 278 278 278 279 279 280 280 281 284 285
272 277 279 279 279 279 279 279 279 278 279 280 279 279 278 277 276 277 276 276 277 277 277 279 280 280 278 277 278 278 278 279 279 278 279 278 277 275 275 275 275 273 272 272 274 274 276 277 278 279 280 279 279 280 280 279 281 278 276 276 277 275 275 275 276 276 277 277 278 278 279 280 280 279
278 278 278 278 278 277 276 275 274 274 275 276 275 275 274 273 274 275 276 277 277 276 277 277 277 276 276 276 276 277 277 276 277 277 277 278 277 278 277 277 277 273 269 270 269 271 272 273 274 275 275 277 278 277 278 278 278 280 277 276 276 275 273 274 274 275 275 275 277 277 278 276 275 276
272 275 275 275 276 275 275 274 274 274 274 272 272 271 272 271 272 273 274 274 273 274 274 274 275 274 274 275 274 274 274 273 275 274 274 274 275 276 275 275 274 276 272 268 268 269 269 270 271 273 273 274 276 276 277 277 276 277 278 275 274 275 275 270 269 273 273 273 274 275 274 273 272 274
272 270 271 270 270 269 269 269 268 269 270 270 270 269 270 270 270 271 272 272 271 271 273 272 274 273 273 271 272 272 271 271 272 272 271 271 271 272 272 271 272 274 273 271 268 268 267 267 268 269 271 272 272 273 275 275 275 275 276 275 273 274 274 272 271 270 272 272 272 272 273 272 273 274
267 267 266 266 266 266 266 266 265 265 265 266 266 267 268 268 267 267 267 267 267 269 270 270 271 270 271 269 270 269 269 270 270 270 269 269 269 269 271 269 270 270 270 271 270 268 268 266 268 267 268 269 270 270 270 269 272 274 274 274 275 273 272 270 270 271 271 270 270 273 273 273 272 271
264 265 263 264 263 264 264 264 263 263 263 263 262 264 265 265 264 263 263 265 265 267 268 269 268 269 270 268 269 268 268 269 268 268 269 266 268 267 267 268 268 270 269 269 269 267 265 265 266 267 268 267 268 269 270 270 269 272 273 273 273 272 272 270 269 270 270 271 271 271 272 273 271 267
263 263 263 262 261 262 262 262 261 262 261 262 261 261 262 262 262 261 261 262 264 265 266 266 266 267 267 266 267 267 267 267 267 267 265 264 264 265 266 267 267 267 267 267 267 265 263 263 265 265 266 267 267 268 272 271 270 270 272 272 271 271 271 270 267 267 269 268 270 269 268 271 271 269
262 261 261 261 261 260 260 261 260 260 260 259 259 259 259 259 260 259 258 261 263 263 262 262 262 264 265 264 265 265 266 266 265 265 264 265 264 264 264 264 265 265 265 265 266 263 261 261 264 264 264 264 265 264 266 275 274 270 270 269 270 268 268 266 265 267 267 267 268 269 267 268 271 267
260 260 260 260 260 259 258 260 259 259 259 258 257 258 257 257 258 258 258 261 261 261 260 261 260 263 263 263 263 264 265 265 264 265 264 264 262 261 263 263 264 263 263 264 264 261 261 261 263 264 264 263 263 263 265 268 273 275 270 268 269 269 265 264 264 264 265 267 265 268 268 268 268 266
259 259 257 258 258 258 258 258 258 258 257 257 256 255 256 256 256 256 257 258 258 258 258 258 259 261 261 261 261 261 262 263 263 263 264 263 262 262 263 263 263 263 263 263 262 260 260 261 262 264 265 262 262 263 263 264 264 265 274 269 267 267 266 263 263 264 264 264 265 265 267 265 266 264
257 257 256 255 256 256 255 256 256 256 255 255 254 254 254 253 253 254 255 257 256 255 255 256 258 259 258 258 259 259 259 260 260 262 263 263 264 264 263 264 263 263 264 262 263 258 258 259 259 262 264 264 263 264 266 262 263 265 267 272 270 267 266 266 264 264 263 262 263 261 259 263 266 269
255 255 255 254 254 255 254 254 253 254 252 253 252 251 253 252 252 252 253 255 253 253 252 254 256 255 253 255 255 256 257 258 259 259 260 261 262 263 263 263 263 263 263 263 263 260 258 258 261 262 263 265 266 264 262 262 262 261 260 265 271 271 267 267 265 264 263 264 262 261 260 262 259 260
252 252 252 252 251 253 253 252 252 252 252 252 251 253 252 251 251 251 252 252 252 250 251 250 251 250 249 250 252 254 254 255 256 257 259 259 259 260 261 262 261 262 262 261 262 262 261 262 263 266 264 262 261 261 262 261 261 262 260 259 268 271 272 273 268 266 264 262 263 262 262 261 260 259
252 251 251 250 250 251 251 251 251 251 250 251 249 250 250 251 251 255 252 252 249 251 250 249 249 250 249 249 250 252 252 252 253 255 256 255 255 257 258 259 258 259 260 259 261 262 261 259 259 261 260 260 259 261 259 261 261 261 260 256 256 267 271 271 272 272 269 265 263 260 260 260 260 258
253 251 250 251 252 251 250 251 250 250 248 248 247 247 247 247 246 247 246 247 247 248 247 246 246 246 246 247 248 249 248 249 251 251 251 253 254 254 254 256 257 258 259 259 259 260 259 257 256 256 257 258 259 261 260 260 261 260 260 259 258 258 260 268 270 270 271 273 272 268 266 262 260 257
250 250 250 249 249 249 247 247 246 246 247 245 246 247 246 246 245 246 245 245 245 244 245 245 243 244 244 245 246 244 246 248 249 248 249 251 252 252 253 254 255 255 256 256 256 256 257 255 254 255 256 258 260 259 258 260 259 260 260 258 255 255 258 261 262 266 269 270 271 273 273 271 270 270
249 248 247 246 246 246 245 244 245 246 245 245 246 245 247 247 247 245 243 244 243 243 244 243 242 242 242 244 244 244 245 251 248 247 248 248 248 250 251 252 252 252 252 252 253 253 255 254 253 253 254 256 258 259 259 259 259 258 257 257 257 256 255 257 259 261 262 263 267 271 271 272 273 272
Wind_Speed
7 6 7 8 7 6 5 5 6 6 4 4 4 5 6 6 3 3 2 4 2 2 3 1 1 0 2 2 1 2 3 3 2 1 1 2 3 5 7 8 8 8 9 9 12 7 5 6 6 6 5 4 4 6 5 4 6 8 9 9 8 9 8 4 8 13 14 12 12 14 14 13 14 14
6 6 5 5 6 4 5 6 5 5 6 6 6 6 5 6 7 5 5 7 4 3 2 3 3 1 2 1 2 2 4 4 2 3 2 2 3 5 7 7 7 7 6 8 9 10 7 8 9 9 8 7 7 6 6 6 5 7 8 8 8 5 7 4 3 7 11 12 12 14 14 14 15 15
6 7 7 6 7 5 6 5 5 5 5 6 6 6 5 6 6 7 5 4 5 4 3 4 4 3 2 2 2 3 3 4 3 3 3 3 4 6 6 6 6 5 6 6 8 10 9 7 10 11 11 10 10 9 9 8 8 9 9 8 7 4 7 7 5 5 7 8 8 10 12 13 15 15
7 7 8 8 8 5 4 5 5 6 5 5 6 6 6 6 6 5 6 8 11 3 5 3 3 2 3 2 2 4 4 2 5 4 4 4 4 4 5 6 7 7 6 5 6 9 10 9 9 9 12 14 12 12 11 10 10 11 11 9 3 6 6 7 7 7 7 7 7 7 9 11 12 13
6 7 8 8 7 5 5 6 5 5 6 5 6 5 6 6 5 6 7 8 9 6 1 2 3 1 0 2 3 5 4 4 4 4 4 4 4 4 5 4 5 7 6 5 6 7 7 8 9 9 7 8 12 15 14 13 12 10 8 7 1 6 6 7 6 5 7 7 7 7 8 9 10 11
7 7 8 7 6 6 7 6 6 6 5 5 6 6 7 7 7 6 7 8 6 9 3 4 1 2 2 3 1 4 4 5 1 4 5 4 4 5 5 6 6 6 7 7 7 6 8 9 9 10 9 6 6 7 10 10 9 9 10 10 5 6 6 7 9 8 7 8 8 8 8 7 8 11
7 7 8 8 6 5 6 6 6 5 6 5 7 7 6 7 6 6 7 6 7 7 7 5 5 4 3 6 4 3 3 3 1 3 5 5 3 3 4 5 5 6 9 9 7 6 7 10 10 10 10 10 7 7 7 8 8 9 10 12 10 9 9 9 9 10 9 9 9 8 9 11 12 12
8 9 8 7 6 6 7 6 5 5 5 6 7 6 7 7 7 7 6 8 8 5 6 3 5 2 3 5 4 3 1 2 3 3 4 3 4 3 3 4 5 6 7 8 10 10 10 11 11 11 10 10 10 7 7 8 8 9 10 11 12 12 11 11 11 11 11 9 9 10 11 10 11 13
9 8 9 7 7 7 8 5 6 6 7 7 6 8 7 7 6 5 6 7 6 6 8 6 2 2 3 2 1 2 2 3 3 3 4 4 4 4 4 4 6 6 8 11 12 12 12 12 12 12 11 12 11 10 8 8 8 10 11 11 12 14 14 13 13 13 13 12 11 10 10 10 12 13
8 8 8 7 7 8 9 9 7 7 8 6 7 7 6 7 5 5 5 5 5 6 9 7 6 2 6 5 1 2 3 3 4 6 6 3 3 4 6 7 4 3 4 6 7 9 11 12 13 12 12 12 12 12 12 10 10 11 11 12 12 13 14 14 14 14 14 13 13 13 12 11 10 11
7 7 6 6 7 8 9 8 7 7 6 7 7 8 7 5 5 5 6 5 5 6 8 7 6 6 3 3 8 2 1 2 3 4 6 6 4 3 5 7 4 4 6 7 11 10 8 8 7 10 11 12 13 14 13 14 14 13 13 13 13 13 13 13 14 16 16 15 15 14 15 14 13 12
7 7 6 6 7 8 8 7 6 7 7 6 7 7 6 5 6 7 6 6 7 7 7 8 8 5 4 2 4 2 1 4 4 4 4 8 9 6 3 5 7 3 5 7 7 7 8 10 12 13 13 14 14 16 15 16 16 16 15 14 13 13 14 15 16 16 17 19 18 17 16 16 16 15
5 4 4 5 5 7 9 10 8 8 8 7 7 6 6 6 7 6 6 7 7 7 7 8 6 6 5 6 5 5 6 7 10 0 4 6 6 5 5 7 5 5 5 5 5 6 6 6 7 7 8 10 14 15 16 13 16 17 17 16 16 15 16 16 17 18 18 18 20 21 20 19 18 18
4 4 4 4 8 10 10 10 9 9 10 10 8 7 7 7 6 6 6 6 7 6 7 8 7 7 8 8 6 6 5 4 3 4 2 5 7 7 6 7 6 6 5 5 8 8 4 6 7 7 9 9 9 8 9 10 12 16 18 19 18 18 17 17 17 19 20 20 20 21 21 22 22 22
4 4 3 3 4 5 6 5 8 9 10 10 11 9 9 9 8 6 6 6 5 6 7 5 4 6 8 8 5 4 5 3 5 6 4 7 5 7 7 11 6 1 7 4 4 8 6 7 8 8 8 7 8 7 10 14 17 18 18 19 19 19 19 19 18 19 19 20 21 22 22 23 23 23
4 4 4 3 3 3 4 4 4 5 7 9 9 9 9 9 10 9 8 7 6 6 6 6 8 6 8 8 4 5 3 5 5 5 6 6 6 7 7 5 7 2 3 5 3 8 3 3 6 7 8 8 8 9 11 15 18 19 20 20 20 20 20 20 20 20 20 21 22 22 23 23 23 24
4 4 4 3 3 3 5 4 4 4 4 6 7 8 8 9 10 11 11 11 8 6 7 7 7 8 5 5 7 5 4 3 5 4 5 5 6 7 8 8 7 7 3 1 3 8 5 4 4 7 7 7 7 8 12 16 18 19 19 20 20 20 21 21 21 21 22 22 22 23 23 23 23 24
4 4 4 4 3 1 1 1 2 2 2 1 1 1 2 3 4 7 10 11 11 7 6 6 8 6 5 8 5 5 4 3 5 5 7 5 7 7 10 9 8 2 4 5 4 9 3 4 6 8 6 7 9 8 10 14 15 18 19 19 19 20 21 21 21 20 20 21 22 23 23 24 25 25
3 3 4 3 2 2 2 1 3 3 3 2 1 1 2 3 3 3 4 4 4 5 6 7 8 7 6 6 6 5 4 7 7 6 8 6 6 5 3 3 4 5 3 4 2 11 1 4 4 7 5 6 9 7 8 13 15 18 18 18 19 19 20 20 21 21 21 21 22 22 22 23 24 25
4 4 4 4 3 2 0 1 2 3 2 2 1 1 2 3 3 3 5 6 5 6 6 6 7 7 7 8 6 6 6 5 5 5 5 2 3 5 7 9 3 6 5 8 8 7 8 6 7 7 5 5 8 6 6 8 14 17 18 18 18 18 20 21 21 21 21 22 22 22 21 22 23 24
4 4 3 4 4 3 2 2 3 2 3 1 2 2 2 3 3 5 4 5 8 10 11 11 11 11 11 11 11 10 11 7 5 4 5 7 4 7 10 9 6 6 6 6 8 7 11 4 6 8 4 7 8 6 6 7 11 15 16 18 18 18 19 20 20 20 20 21 22 22 22 22 22 23
6 7 8 6 5 4 2 1 1 2 2 3 3 3 3 3 4 4 4 3 5 7 7 7 8 9 9 10 10 10 9 9 6 5 8 5 3 8 7 9 7 5 3 5 8 3 9 1 4 5 3 4 4 5 6 8 8 11 12 17 19 18 18 19 19 19 19 20 21 21 21 21 20 16
6 6 7 9 7 5 5 8 7 6 2 2 2 3 2 3 3 3 2 3 3 2 1 3 2 3 4 4 3 5 8 8 7 6 7 5 6 8 7 7 7 8 5 5 10 7 6 3 4 4 4 8 5 4 5 7 7 6 6 8 9 11 14 16 18 17 17 18 19 20 19 19 18 12
5 6 5 7 11 10 10 9 8 8 6 3 2 1 1 2 3 2 3 3 2 2 1 2 1 2 1 1 0 1 2 3 3 5 5 6 6 7 7 7 6 9 4 1 5 6 3 2 4 4 6 7 9 0 1 3 5 6 4 6 7 8 11 13 13 16 16 16 17 18 18 18 17 11
4 4 5 5 9 10 10 9 8 7 7 5 3 1 1 1 2 3 2 3 4 2 2 2 1 1 1 2 1 2 2 3 3 3 3 4 5 6 7 7 7 8 6 3 7 5 5 3 5 1 3 4 7 8 3 3 2 4 5 6 7 6 5 7 5 6 7 12 14 16 18 18 19 15
3 3 2 2 5 8 8 8 7 8 7 7 3 2 4 5 5 2 2 2 2 2 1 1 1 2 2 3 3 3 3 4 4 4 4 4 4 5 5 7 8 8 5 2 5 5 5 6 5 6 5 4 9 8 9 5 3 4 2 4 5 5 4 5 5 4 5 4 6 6 8 14 16 19
2 0 1 1 5 7 8 7 8 7 8 5 3 5 5 4 4 2 1 2 1 2 2 2 2 2 2 3 3 3 4 4 3 4 3 3 4 4 5 4 4 5 2 3 3 3 3 5 3 4 7 6 10 11 10 9 6 0 3 4 4 5 3 3 6 6 5 4 4 5 7 10 13 14
2 1 1 2 6 7 7 7 7 7 6 4 7 7 7 6 5 1 1 0 1 1 1 2 3 3 2 1 2 3 4 4 4 4 3 4 3 3 4 4 4 2 1 0 2 3 4 7 7 6 6 7 10 11 13 8 6 2 4 2 1 3 2 3 5 6 4 5 4 5 5 6 5 4
1 2 5 6 5 5 5 6 6 6 7 10 10 11 10 7 3 3 2 1 0 0 0 0 1 2 5 3 1 2 3 4 3 3 3 3 3 3 3 4 4 2 1 1 2 2 3 4 6 5 5 6 9 10 9 11 9 5 3 5 5 2 3 4 5 5 5 4 5 5 6 6 5 1
6 6 6 7 7 6 6 5 4 5 6 10 12 12 10 5 5 4 3 3 3 3 3 3 3 3 3 3 3 3 3 3 3 3 4 4 4 4 4 5 4 0 1 1 1 0 1 1 3 3 5 6 7 10 9 10 10 9 4 4 6 3 4 5 4 4 4 4 5 5 5 2 3 2
5 6 6 6 8 8 10 9 8 8 7 7 7 7 6 6 6 5 5 4 4 4 4 3 2 3 3 3 3 4 3 3 3 3 2 3 3 3 3 4 4 5 2 1 1 1 1 1 1 1 4 6 7 7 8 7 10 9 7 4 3 9 1 3 1 4 3 4 4 5 4 2 2 3
4 4 6 7 6 5 6 6 6 6 6 7 7 6 6 6 6 6 7 6 6 5 4 3 3 3 3 4 3 3 3 3 2 2 2 2 2 3 3 3 4 3 2 2 1 1 3 1 1 1 3 3 5 5 6 5 8 8 8 4 4 5 5 6 5 4 4 2 4 5 5 4 5 4
5 5 7 6 6 6 5 5 5 6 6 6 6 6 6 6 7 7 7 7 7 6 5 5 5 5 4 4 4 4 4 5 5 5 4 4 2 4 2 3 4 3 3 3 1 1 1 1 2 3 3 4 5 5 3 6 7 7 7 7 6 6 5 4 3 5 2 1 6 7 7 5 4 4
6 5 5 6 5 5 5 5 6 6 6 6 6 6 7 7 7 7 7 6 6 6 6 5 5 5 5 5 5 5 5 5 5 5 5 5 5 3 5 5 4 3 2 4 3 3 3 3 2 2 4 5 6 7 7 7 7 8 7 6 6 7 5 4 4 4 3 4 4 7 7 7 3 2
5 4 5 5 5 5 4 5 5 5 5 5 5 6 6 6 6 6 5 5 6 6 5 6 5 5 5 5 6 5 6 6 6 6 5 4 5 5 5 5 6 6 5 5 5 4 2 4 5 5 4 4 4 5 13 12 7 8 7 6 6 7 6 2 3 4 3 4 2 6 7 8 7 4
4 4 4 4 3 3 3 3 3 3 4 4 4 4 4 5 5 6 5 6 5 4 5 5 5 5 5 5 5 5 5 6 5 5 5 6 5 5 4 4 5 5 5 4 5 4 1 2 4 4 5 6 6 7 6 13 15 5 7 5 4 3 4 2 2 4 4 5 5 5 7 9 7 0
5 3 3 3 3 3 2 3 3 3 3 3 3 4 4 4 4 5 6 6 4 5 5 5 4 4 5 5 5 5 5 5 5 5 5 5 4 3 5 5 5 4 5 5 4 1 0 0 2 1 3 5 6 8 8 5 6 12 4 4 5 4 1 1 1 3 4 4 3 5 6 6 7 4
4 4 3 3 3 3 2 3 3 3 3 3 3 3 3 3 3 4 4 4 4 5 5 5 5 5 5 6 5 5 5 5 5 5 6 5 5 5 5 5 6 5 5 5 4 3 3 2 2 3 3 5 7 7 9 4 3 4 7 6 2 6 2 1 3 5 5 3 4 6 5 3 7 5
4 4 3 3 2 2 2 2 3 2 2 2 2 3 3 3 4 4 4 4 4 5 5 5 5 5 5 6 6 6 6 6 5 5 6 5 6 5 5 6 6 5 6 5 6 2 1 2 4 4 5 5 6 6 5 4 7 6 6 10 6 4 6 5 5 5 5 3 5 1 2 4 2 7
3 3 2 3 2 2 2 1 2 1 2 0 0 1 0 2 3 3 3 4 3 3 4 4 4 5 5 5 5 5 5 5 5 5 6 5 5 6 5 5 6 6 6 6 6 5 3 4 5 5 6 6 6 4 3 5 6 6 6 8 18 13 6 5 5 5 5 5 3 1 5 4 3 3
2 2 0 2 2 1 2 1 2 2 1 1 1 1 0 1 0 3 1 1 2 1 1 1 1 1 2 3 3 3 3 4 4 4 5 5 6 6 7 8 5 6 6 4 7 5 3 5 5 8 6 5 5 2 4 5 9 8 4 4 8 9 11 9 6 6 6 3 3 4 5 5 3 2
2 1 1 2 3 2 3 2 2 3 2 1 1 1 1 0 1 2 1 2 1 0 0 0 1 0 1 1 1 3 2 3 4 4 5 5 5 6 8 6 5 6 6 5 7 7 5 6 6 4 4 2 1 3 7 8 10 9 7 3 4 7 7 9 12 10 7 6 4 2 2 2 2 3
2 3 3 4 3 3 3 4 3 3 3 2 2 2 1 1 1 0 0 0 1 1 1 1 1 1 2 2 3 2 3 3 4 3 4 5 5 5 6 6 6 6 7 7 7 7 7 7 5 4 5 3 3 4 8 7 9 7 8 7 5 3 5 9 11 13 15 13 13 10 7 6 3 3
4 4 5 4 5 4 3 4 3 2 2 2 2 1 0 1 1 3 1 1 1 2 2 1 2 2 2 3 2 2 2 3 2 3 4 4 5 5 5 7 7 6 6 7 8 7 7 7 6 4 3 4 5 4 7 8 8 7 7 6 4 3 5 5 5 8 10 12 14 14 18 17 13 12
4 5 5 5 5 5 4 3 2 2 1 1 0 1 1 1 1 1 2 1 1 2 1 1 1 3 2 3 2 2 4 4 3 3 3 3 4 5 5 5 6 6 6 6 7 8 7 6 7 6 3 5 5 5 6 7 7 6 7 6 8 5 3 3 4 6 6 7 9 10 10 11 17 19
Wind_Direction
204 202 198 210 219 219 192 195 203 198 183 187 185 182 188 167 197 284 297 281 250 295 203 208 299 357 307 274 263 256 261 272 272 270 277 308 304 322 328 336 334 348 342 338 334 275 239 232 218 221 209 181 151 146 147 168 194 195 197 205 217 226 242 258 237 219 218 213 213 216 217 217 215 217
196 202 201 206 223 210 185 207 203 191 192 187 193 200 196 167 193 197 238 273 212 260 275 211 258 342 339 336 293 211 257 260 251 248 260 267 284 302 312 316 325 335 342 335 327 320 245 238 244 234 222 221 210 195 187 187 211 222 217 222 222 242 92 114 160 195 202 211 213 214 215 214 212 213
186 198 210 203 221 202 204 198 193 195 185 199 192 199 183 193 190 197 196 254 276 191 258 262 242 254 318 325 303 285 250 244 242 252 262 260 266 290 293 296 305 313 321 327 322 318 318 268 247 244 247 233 234 234 232 234 238 237 242 244 264 106 138 125 133 135 150 159 174 189 200 207 210 210
191 197 208 210 216 202 189 196 198 197 198 189 191 194 193 199 199 189 192 219 254 211 211 253 284 253 255 319 297 282 281 255 232 230 238 243 255 268 266 280 282 289 294 314 316 313 312 313 308 290 257 246 242 237 231 234 237 246 244 248 198 128 141 149 141 158 144 144 147 155 159 162 167 180
190 201 209 214 214 182 198 203 196 195 196 191 199 191 186 201 196 186 203 226 257 280 209 234 261 312 204 301 211 250 281 290 271 250 240 231 236 248 256 268 277 279 287 296 299 300 305 311 310 306 317 293 258 247 239 237 233 231 252 282 191 150 171 163 169 178 169 159 160 163 162 158 146 144
201 198 208 215 202 188 205 196 201 197 186 188 194 202 194 208 204 196 195 230 238 256 304 291 257 301 167 260 175 208 247 273 299 269 264 249 232 244 248 254 257 263 269 274 275 277 284 291 292 299 299 283 297 272 261 266 252 212 213 232 215 162 188 189 179 190 187 186 184 181 172 169 161 164
194 200 208 214 193 182 202 206 205 182 194 186 197 208 200 211 208 193 204 217 242 247 257 237 263 222 217 214 242 225 249 268 266 268 266 261 265 242 246 257 264 259 257 258 255 252 269 275 277 282 286 293 283 282 283 277 267 244 217 214 217 178 188 191 194 197 199 198 195 202 198 182 178 185
191 203 205 214 189 187 203 207 194 190 187 191 204 210 210 209 212 197 195 213 229 249 255 254 222 238 201 256 256 237 266 261 279 239 280 289 279 279 267 248 257 256 254 257 262 266 267 268 269 268 273 277 280 277 278 280 274 260 236 222 217 206 192 194 195 194 200 206 210 205 205 203 199 192
197 200 206 203 185 187 206 204 190 188 197 203 198 213 209 208 216 195 198 217 218 243 252 267 249 289 264 217 194 169 237 297 287 285 258 264 278 291 267 258 247 251 257 264 263 260 258 258 258 260 260 260 264 268 264 261 265 266 254 236 225 217 204 201 197 197 196 197 204 215 218 218 207 204
199 202 205 195 185 191 201 211 202 193 203 195 204 213 209 209 199 204 218 219 222 230 255 248 279 266 279 302 263 174 172 234 291 296 283 285 247 250 278 258 251 236 237 246 255 253 256 256 258 258 259 264 265 259 256 252 248 247 252 248 236 228 220 207 201 198 199 200 200 203 213 219 228 232
204 205 200 189 190 199 206 209 200 196 199 194 210 211 209 195 183 199 214 205 215 229 248 265 242 262 262 232 277 349 76 169 215 256 300 305 262 212 226 278 261 220 243 247 247 249 249 254 253 252 254 253 252 256 255 250 245 242 239 239 240 234 225 219 211 201 197 201 203 204 206 211 218 225
205 206 199 193 194 203 207 204 200 182 198 192 212 217 192 179 182 201 203 195 207 219 233 242 259 235 241 256 258 314 9 313 282 203 211 259 274 266 242 228 259 250 204 253 259 255 255 255 255 256 255 250 247 243 245 246 244 243 241 239 236 235 231 223 217 216 208 199 199 203 206 210 213 215
207 205 201 195 200 206 212 207 198 194 192 182 205 216 182 187 187 202 199 204 201 220 224 250 257 267 257 239 231 249 247 230 251 303 159 251 268 279 293 272 242 234 233 258 259 256 225 249 246 243 248 246 245 247 243 247 247 245 241 239 236 233 231 228 222 216 217 216 207 202 202 205 208 211
205 207 200 208 207 210 214 214 211 205 205 203 200 194 180 188 187 196 203 204 209 207 220 235 241 255 257 250 227 234 235 247 293 295 244 256 282 302 275 269 245 209 194 235 259 257 220 212 251 235 238 245 239 244 243 239 237 241 240 239 237 236 234 231 228 224 219 218 217 214 209 207 208 210
203 209 204 205 218 220 224 222 220 218 215 220 221 214 189 188 183 186 201 217 196 201 222 229 226 239 259 263 254 236 242 222 217 230 233 242 269 270 286 288 317 188 181 225 247 272 227 191 230 239 241 245 246 232 236 242 242 243 244 244 242 239 237 235 232 229 227 223 222 221 216 212 212 213
181 191 193 199 191 199 205 201 208 215 220 224 229 232 224 210 209 200 190 201 203 201 213 220 225 219 234 255 243 250 217 245 236 227 229 229 231 249 254 259 259 266 154 189 228 266 255 190 223 247 242 236 237 239 236 239 243 244 244 246 245 243 241 238 235 233 229 228 226 225 225 224 220 217
178 176 175 188 192 208 205 206 194 190 202 211 221 228 229 227 219 224 225 218 213 189 204 214 234 215 228 240 244 216 208 183 232 211 226 224 231 228 243 247 261 260 167 190 238 264 254 183 225 225 246 244 244 244 245 243 243 244 245 245 245 246 246 244 240 237 235 231 229 228 228 226 224 222
172 175 176 173 194 238 188 189 187 183 193 189 198 252 249 243 250 240 240 242 245 232 214 206 233 232 191 232 231 227 198 199 231 227 244 211 232 227 232 233 237 270 131 219 291 276 238 205 246 252 231 225 245 238 238 240 243 246 248 248 247 247 249 250 250 249 246 243 238 233 230 229 228 226
138 142 142 145 155 143 161 172 173 175 187 174 188 215 245 234 234 229 236 234 228 231 227 231 241 249 238 238 241 243 216 221 229 226 244 234 238 247 261 272 230 247 198 206 200 267 247 192 239 257 241 229 243 233 240 238 243 246 247 247 247 248 249 250 249 249 249 247 245 243 239 236 233 231
107 115 120 122 113 123 122 200 182 187 149 153 178 218 268 281 267 251 228 226 218 212 216 219 229 238 243 244 240 239 241 247 245 253 261 256 241 260 261 265 176 222 200 195 207 257 257 172 219 253 231 244 256 242 237 244 240 244 246 247 246 246 249 249 248 248 248 247 247 245 243 242 240 237
87 86 94 100 109 104 71 351 335 310 148 143 191 219 241 245 257 269 273 242 236 234 232 232 232 239 248 257 261 258 249 242 242 264 276 260 237 257 266 269 256 247 174 218 209 236 265 162 200 256 222 228 247 240 231 237 237 237 242 245 244 242 244 248 248 248 249 249 249 248 246 244 244 242
83 80 87 89 91 92 105 184 169 253 170 184 203 209 219 233 244 254 236 239 249 250 251 248 245 245 248 252 258 262 262 256 232 209 249 261 232 259 258 272 270 278 178 210 191 207 247 110 213 249 279 279 236 236 224 229 236 236 242 247 248 247 246 248 249 247 247 249 250 250 249 248 247 246
87 74 64 68 75 72 72 73 70 60 104 179 210 220 227 251 260 262 264 265 268 280 295 298 287 285 246 237 228 245 252 256 246 223 240 255 249 262 268 271 286 284 260 198 177 215 258 217 239 203 312 278 237 181 213 220 226 235 233 250 260 261 256 255 255 252 251 250 251 251 251 250 249 248
66 61 54 44 44 53 52 51 51 51 67 86 29 340 247 272 285 315 348 308 297 292 268 259 244 247 294 324 357 286 286 263 236 228 230 233 237 255 265 265 261 265 277 314 188 221 280 224 271 178 207 270 285 57 342 281 226 233 219 243 247 250 249 258 262 260 260 257 257 256 253 249 245 246
53 35 31 21 24 33 36 37 35 38 40 69 82 77 140 231 301 11 358 316 320 304 289 294 303 307 321 316 315 300 281 275 268 252 239 231 229 238 252 261 265 267 266 209 192 220 254 275 274 178 248 230 273 288 213 220 281 224 225 217 244 259 257 260 260 268 269 265 262 260 255 252 246 241
72 57 27 10 13 32 31 26 25 26 32 38 61 359 359 353 13 22 329 325 339 324 319 283 303 295 295 280 274 262 254 254 256 252 248 242 240 246 246 251 263 270 271 335 199 210 249 266 252 272 267 256 276 266 282 261 223 256 229 229 231 250 255 267 288 278 271 264 275 278 276 269 261 253
120 120 29 322 11 28 21 16 15 16 22 35 360 4 6 6 351 337 303 292 292 295 283 273 269 255 250 258 249 249 263 272 276 274 270 274 268 262 264 263 270 284 349 9 352 317 283 269 288 261 270 275 279 284 272 279 281 357 313 253 239 253 243 258 262 260 262 282 291 323 311 294 289 284
82 31 342 18 28 22 13 10 9 13 22 22 23 31 36 38 26 13 309 260 236 224 233 234 246 245 250 288 8 18 357 332 318 308 293 284 284 296 295 298 300 12 75 13 284 292 259 267 271 264 264 270 270 270 279 274 278 224 254 316 304 256 267 245 252 261 254 257 262 265 269 276 262 283
359 44 49 44 33 28 20 30 37 35 46 55 52 49 46 46 46 33 38 352 6 60 286 13 2 45 48 43 2 320 302 294 297 299 307 294 291 284 274 270 266 262 136 203 213 224 260 260 268 281 275 264 262 265 270 276 282 271 246 297 292 250 222 249 256 261 265 247 249 249 243 244 258 270
42 44 46 52 52 50 55 59 61 59 59 55 49 46 42 41 38 25 35 24 58 44 39 38 36 27 14 3 339 326 335 2 342 355 346 328 320 310 316 309 290 166 51 117 43 57 39 210 267 282 274 267 260 269 270 282 274 277 252 236 285 296 211 231 250 263 275 281 268 262 269 239 240 215
29 44 57 63 64 71 68 65 63 63 56 49 41 38 34 34 30 28 31 37 44 32 41 15 24 9 357 349 8 7 2 350 347 19 352 322 310 317 334 295 285 290 257 86 64 44 55 67 330 266 249 266 267 259 273 271 279 278 272 215 239 262 268 79 302 274 299 285 287 286 284 262 233 221
41 53 49 46 31 42 39 41 34 32 38 44 37 30 31 33 30 27 32 45 39 23 18 349 17 359 12 9 358 356 347 328 335 355 24 312 302 305 286 292 265 274 288 237 150 140 116 186 153 250 210 251 265 288 297 283 277 282 283 267 239 261 277 268 264 277 264 284 287 271 262 242 244 241
43 47 46 35 35 32 37 36 35 28 29 34 30 27 28 28 27 24 23 22 14 2 4 9 7 351 3 352 340 359 351 337 350 334 351 321 343 313 278 232 282 281 269 264 194 277 270 242 226 184 217 212 230 227 225 275 264 265 274 273 268 255 259 253 220 254 290 63 269 277 283 261 231 241
65 53 67 45 42 32 33 35 28 24 20 19 22 18 22 24 29 26 21 13 11 355 1 0 1 350 356 355 348 358 346 332 344 345 358 331 330 351 319 309 300 294 292 283 292 292 310 318 297 272 246 238 243 214 215 233 252 264 257 269 262 272 251 217 211 229 217 243 269 280 279 281 256 197
60 52 63 48 42 40 42 47 32 25 26 20 24 16 16 20 22 19 13 4 359 350 10 1 358 350 1 358 352 352 344 340 333 340 338 348 340 332 322 320 314 320 327 319 315 319 17 331 335 335 311 281 266 264 221 211 242 248 262 242 248 252 267 210 157 216 208 198 243 230 257 276 269 226
63 70 85 77 67 63 55 65 56 43 48 31 28 12 19 17 18 11 356 344 344 1 8 358 349 345 357 350 345 338 333 327 333 321 328 332 328 317 311 294 290 298 299 300 297 314 29 11 328 334 320 315 313 302 316 217 199 217 251 261 250 227 244 222 183 193 202 220 214 218 213 253 263 36
85 71 76 82 76 72 64 58 69 51 55 48 28 24 25 16 356 359 326 345 356 9 358 2 338 341 350 342 338 327 325 328 321 320 319 302 301 297 301 292 285 277 288 283 272 281 258 117 285 288 281 296 291 285 271 335 208 205 233 262 287 291 231 261 277 251 255 237 206 238 235 237 266 261
73 72 62 66 70 56 58 52 61 54 45 36 32 13 9 9 343 338 324 8 2 10 352 355 341 347 355 343 335 329 333 324 316 316 301 303 309 304 294 289 295 298 284 287 294 265 238 157 206 215 242 208 265 275 293 305 22 314 347 59 275 301 16 76 307 274 273 270 241 246 261 234 257 261
69 82 83 83 39 83 56 26 66 69 51 52 20 355 344 352 344 348 350 5 22 358 354 347 348 356 4 341 342 339 330 330 326 319 323 324 314 307 304 301 294 290 294 292 291 280 220 211 222 233 215 238 237 253 273 291 273 252 311 319 286 270 271 240 237 264 264 249 267 311 345 268 299 311
62 90 103 102 102 103 98 92 84 119 105 189 101 285 66 350 326 336 323 4 19 350 351 343 356 7 357 345 341 321 321 312 309 317 308 310 314 312 310 297 291 295 288 291 287 272 229 223 244 230 233 247 259 279 256 254 269 275 262 268 266 260 231 231 240 226 263 251 205 196 278 281 321 290
77 77 22 126 110 152 143 160 179 153 165 193 159 285 104 214 314 279 277 28 24 342 334 325 350 32 335 316 325 318 319 307 306 305 318 334 325 316 319 319 320 311 300 295 297 297 288 261 269 273 264 251 283 305 310 297 275 274 277 277 277 282 275 265 236 208 242 220 171 187 240 251 265 311
140 177 233 177 160 207 167 189 208 166 219 203 171 206 230 240 230 299 39 344 358 320 306 288 309 24 331 306 317 332 338 317 313 331 335 330 324 324 326 327 316 314 312 308 307 309 314 316 315 294 288 284 278 253 245 252 270 279 283 281 307 300 308 303 300 286 244 190 144 191 216 313 300 308
152 196 211 215 185 198 189 192 199 182 208 206 196 212 167 222 247 39 271 313 292 329 301 338 327 36 340 332 334 340 350 325 320 348 338 325 325 326 320 316 313 318 315 311 311 312 316 314 326 309 280 261 243 245 261 261 270 285 288 297 288 306 318 307 306 304 298 276 231 206 191 187 154 249
191 191 211 214 203 224 221 200 207 209 188 202 213 196 206 229 275 287 281 284 317 302 288 356 328 352 323 308 320 346 315 290 336 349 324 326 326 316 311 316 313 316 318 316 311 314 315 322 320 309 296 265 252 241 257 268 270 273 275 285 302 338 309 301 305 310 297 291 293 264 230 213 215 230
201 198 209 222 215 218 228 220 199 222 202 204 193 254 255 294 266 259 279 263 263 266 274 267 283 293 287 292 302 313 288 308 335 308 316 317 302 307 313 309 315 314 312 313 314 312 314 321 314 315 276 260 265 264 267 266 275 282 286 291 289 287 295 299 309 299 298 305 291 300 331 295 251 240